When you browse on this site, cookies collect data to enhance your experience and personalize the content and advertising you see.
Visit our Privacy Policy to learn more. By continuing to use the site, you agree to this use of cookies and data.
  • In Hungary
  • List of Countries
  • For 7 days
  • Water Temperature
  • Satellite Maps
  • Weather Map
  • News
  • Weather Widgets
  • user-avatar
    Login

    Hourly Weather Jaworce

    Today, 20 May, Monday

    Time Temperature Precipitation Wind Pressure Humidity
    00:00 +16°C° 0 mm 3 mps 737 mmHg 95%
    01:00 +16°C° 0 mm 3 mps 736 mmHg 97%
    02:00 +16°C° 0.2 mm 3 mps 736 mmHg 97%
    03:00 +15°C° 0.2 mm 4 mps 736 mmHg 97%
    04:00 +15°C° 0.2 mm 4 mps 735 mmHg 97%
    05:00 +16°C° 0 mm 5 mps 735 mmHg 95%
    06:00 +17°C° 0 mm 5 mps 735 mmHg 93%
    07:00 +19°C° 0 mm 6 mps 735 mmHg 91%
    08:00 +20°C° 0 mm 6 mps 736 mmHg 86%
    09:00 +21°C° 0 mm 5 mps 736 mmHg 81%
    10:00 +23°C° 0 mm 5 mps 736 mmHg 76%
    11:00 +23°C° 0.8 mm 5 mps 736 mmHg 73%
    12:00 +25°C° 0.8 mm 5 mps 736 mmHg 70%
    13:00 +26°C° 0.8 mm 4 mps 735 mmHg 67%
    14:00 +23°C° 1.5 mm 4 mps 735 mmHg 72%
    15:00 +22°C° 1.5 mm 4 mps 735 mmHg 78%
    16:00 +21°C° 1.5 mm 3 mps 735 mmHg 83%
    17:00 +20°C° 0.2 mm 3 mps 735 mmHg 86%
    18:00 +19°C° 0.2 mm 3 mps 735 mmHg 88%
    19:00 +18°C° 0.2 mm 2 mps 735 mmHg 91%
    20:00 +17°C° 0 mm 2 mps 735 mmHg 92%
    21:00 +16°C° 0 mm 2 mps 735 mmHg 93%
    22:00 +16°C° 0 mm 2 mps 735 mmHg 95%
    23:00 +15°C° 0 mm 2 mps 735 mmHg 95%

    Tomorrow, 21 May, Tuesday

    Time Temperature Precipitation Wind Pressure Humidity
    00:00 +15°C° 0 mm 2 mps 734 mmHg 95%
    01:00 +15°C° 0 mm 2 mps 734 mmHg 95%
    02:00 +15°C° 0.3 mm 2 mps 734 mmHg 95%
    03:00 +15°C° 0.3 mm 1 mps 734 mmHg 95%
    04:00 +15°C° 0.3 mm 1 mps 734 mmHg 95%
    05:00 +16°C° 0 mm 1 mps 734 mmHg 90%
    06:00 +18°C° 0 mm 1 mps 734 mmHg 86%
    07:00 +18°C° 0 mm 2 mps 734 mmHg 82%
    08:00 +18°C° 0.1 mm 2 mps 734 mmHg 78%
    09:00 +19°C° 0.1 mm 2 mps 734 mmHg 75%
    10:00 +20°C° 0.1 mm 2 mps 735 mmHg 72%
    11:00 +19°C° 0.7 mm 2 mps 734 mmHg 78%
    12:00 +18°C° 0.7 mm 2 mps 734 mmHg 85%
    13:00 +16°C° 0.7 mm 1 mps 734 mmHg 91%
    14:00 +16°C° 0.7 mm 3 mps 734 mmHg 91%
    15:00 +15°C° 0.7 mm 4 mps 734 mmHg 91%
    16:00 +14°C° 0.7 mm 5 mps 734 mmHg 92%
    17:00 +14°C° 2 mm 5 mps 734 mmHg 92%
    18:00 +13°C° 2 mm 5 mps 735 mmHg 92%
    19:00 +13°C° 2 mm 6 mps 735 mmHg 92%
    20:00 +13°C° 0.7 mm 5 mps 735 mmHg 92%
    21:00 +13°C° 0.7 mm 5 mps 735 mmHg 92%
    22:00 +13°C° 0.7 mm 5 mps 736 mmHg 92%
    23:00 +13°C° 0.1 mm 5 mps 736 mmHg 92%

    Day after tomorrow, 22 May, Wednesday

    Time Temperature Precipitation Wind Pressure Humidity
    00:00 +13°C° 0.1 mm 4 mps 736 mmHg 92%
    01:00 +13°C° 0.1 mm 3 mps 736 mmHg 92%
    02:00 +12°C° 0 mm 3 mps 736 mmHg 93%
    03:00 +12°C° 0 mm 3 mps 736 mmHg 94%
    04:00 +12°C° 0 mm 3 mps 736 mmHg 95%
    05:00 +13°C° 0 mm 3 mps 736 mmHg 93%
    06:00 +14°C° 0 mm 3 mps 736 mmHg 90%
    07:00 +16°C° 0 mm 3 mps 736 mmHg 88%
    08:00 +17°C° 0.7 mm 3 mps 736 mmHg 82%
    09:00 +18°C° 0.7 mm 3 mps 736 mmHg 77%
    10:00 +20°C° 0.7 mm 4 mps 736 mmHg 72%
    11:00 +20°C° 0.9 mm 4 mps 736 mmHg 72%
    12:00 +20°C° 0.9 mm 5 mps 736 mmHg 72%
    13:00 +20°C° 0.9 mm 5 mps 736 mmHg 72%
    14:00 +20°C° 0.8 mm 5 mps 736 mmHg 74%
    15:00 +19°C° 0.8 mm 5 mps 736 mmHg 75%
    16:00 +19°C° 0.8 mm 4 mps 736 mmHg 77%
    17:00 +18°C° 0.1 mm 4 mps 736 mmHg 81%
    18:00 +17°C° 0.1 mm 3 mps 736 mmHg 85%
    19:00 +14°C° 0.1 mm 3 mps 736 mmHg 90%
    20:00 +14°C° 0.1 mm 3 mps 736 mmHg 92%
    21:00 +13°C° 0.1 mm 3 mps 737 mmHg 94%
    22:00 +13°C° 0.1 mm 4 mps 737 mmHg 96%
    23:00 +13°C° 0.1 mm 4 mps 737 mmHg 95%

    23 May, Thursday

    Time Temperature Precipitation Wind Pressure Humidity
    00:00 +13°C° 0.1 mm 5 mps 737 mmHg 94%
    01:00 +13°C° 0.1 mm 5 mps 737 mmHg 93%
    02:00 +12°C° 0.1 mm 5 mps 737 mmHg 93%
    03:00 +12°C° 0.1 mm 5 mps 737 mmHg 93%
    04:00 +12°C° 0.1 mm 4 mps 737 mmHg 93%
    05:00 +12°C° 0.2 mm 4 mps 737 mmHg 94%
    06:00 +13°C° 0.2 mm 4 mps 738 mmHg 94%
    07:00 +13°C° 0.2 mm 3 mps 738 mmHg 94%
    08:00 +13°C° 0.5 mm 3 mps 738 mmHg 94%
    09:00 +13°C° 0.5 mm 3 mps 738 mmHg 95%
    10:00 +14°C° 0.5 mm 3 mps 739 mmHg 95%
    11:00 +14°C° 0.5 mm 3 mps 739 mmHg 93%
    12:00 +14°C° 0.5 mm 4 mps 739 mmHg 92%
    13:00 +15°C° 0.5 mm 4 mps 739 mmHg 91%
    14:00 +14°C° 1.1 mm 5 mps 739 mmHg 92%
    15:00 +13°C° 1.1 mm 6 mps 740 mmHg 93%
    16:00 +12°C° 1.1 mm 7 mps 740 mmHg 94%
    17:00 +11°C° 0.6 mm 7 mps 740 mmHg 94%
    18:00 +11°C° 0.6 mm 7 mps 740 mmHg 94%
    19:00 +11°C° 0.6 mm 6 mps 740 mmHg 94%
    20:00 +10°C° 0.3 mm 6 mps 741 mmHg 93%
    21:00 +10°C° 0.3 mm 6 mps 741 mmHg 93%
    22:00 +10°C° 0.3 mm 6 mps 741 mmHg 93%
    23:00 +9°C° 0.3 mm 5 mps 741 mmHg 92%

    24 May, Friday

    Time Temperature Precipitation Wind Pressure Humidity
    00:00 +9°C° 0.3 mm 5 mps 741 mmHg 91%
    01:00 +8°C° 0.3 mm 5 mps 741 mmHg 90%
    02:00 +8°C° 0.2 mm 5 mps 741 mmHg 91%
    03:00 +8°C° 0.2 mm 4 mps 741 mmHg 91%
    04:00 +7°C° 0.2 mm 4 mps 741 mmHg 91%
    05:00 +7°C° 0.2 mm 4 mps 741 mmHg 91%
    06:00 +8°C° 0.2 mm 4 mps 741 mmHg 90%
    07:00 +8°C° 0.2 mm 4 mps 741 mmHg 90%
    08:00 +10°C° 0.1 mm 4 mps 741 mmHg 87%
    09:00 +11°C° 0.1 mm 3 mps 740 mmHg 84%
    10:00 +12°C° 0.1 mm 3 mps 740 mmHg 81%
    11:00 +13°C° 0 mm 3 mps 740 mmHg 78%
    12:00 +14°C° 0 mm 2 mps 740 mmHg 75%
    13:00 +15°C° 0 mm 2 mps 740 mmHg 73%
    14:00 +16°C° 0 mm 1 mps 739 mmHg 71%
    15:00 +16°C° 0 mm 1 mps 739 mmHg 69%
    16:00 +16°C° 0 mm 1 mps 738 mmHg 68%
    17:00 +14°C° 0 mm 0 mps 738 mmHg 70%
    18:00 +14°C° 0 mm 0 mps 738 mmHg 73%
    19:00 +13°C° 0 mm 0 mps 738 mmHg 76%
    20:00 +13°C° 0 mm 1 mps 738 mmHg 78%
    21:00 +12°C° 0 mm 1 mps 738 mmHg 80%
    22:00 +10°C° 0 mm 2 mps 738 mmHg 83%
    23:00 +10°C° 0 mm 2 mps 737 mmHg 84%

    25 May, Saturday

    Time Temperature Precipitation Wind Pressure Humidity
    00:00 +10°C° 0 mm 2 mps 737 mmHg 85%
    01:00 +10°C° 0 mm 2 mps 737 mmHg 86%
    02:00 +11°C° 0 mm 1 mps 737 mmHg 87%
    03:00 +10°C° 0 mm 1 mps 737 mmHg 89%
    04:00 +10°C° 0 mm 1 mps 737 mmHg 90%
    05:00 +12°C° 0 mm 1 mps 737 mmHg 86%
    06:00 +14°C° 0 mm 1 mps 737 mmHg 83%
    07:00 +15°C° 0 mm 1 mps 737 mmHg 79%
    08:00 +16°C° 0.1 mm 1 mps 737 mmHg 76%
    09:00 +18°C° 0.1 mm 1 mps 737 mmHg 73%
    10:00 +19°C° 0.1 mm 1 mps 737 mmHg 69%
    11:00 +20°C° 0.2 mm 1 mps 737 mmHg 66%
    12:00 +19°C° 0.2 mm 2 mps 737 mmHg 63%
    13:00 +20°C° 0.2 mm 2 mps 737 mmHg 60%
    14:00 +20°C° 0.1 mm 2 mps 737 mmHg 60%
    15:00 +20°C° 0.1 mm 3 mps 737 mmHg 61%
    16:00 +20°C° 0.1 mm 3 mps 737 mmHg 61%
    17:00 +19°C° 0 mm 3 mps 737 mmHg 66%
    18:00 +17°C° 0 mm 2 mps 737 mmHg 72%
    19:00 +16°C° 0 mm 2 mps 737 mmHg 77%
    20:00 +15°C° 0 mm 2 mps 737 mmHg 79%
    21:00 +14°C° 0 mm 1 mps 737 mmHg 82%
    22:00 +13°C° 0 mm 1 mps 738 mmHg 84%
    23:00 +12°C° 0 mm 1 mps 738 mmHg 84%
    Show more